Weather History for KPUB - June, 2012

Change the Weather History Date:

Thursday, June 14, 2012

  Actual Average Record
Temperature  
Mean Temperature 76 °F 70 °F  
Max Temperature 95 °F 87 °F 102 °F (2006)
Min Temperature 57 °F 52 °F 40 °F (2001)
Degree Days  
Heating Degree Days 0 1  
Month to date heating degree days 0 20  
Since 1 June heating degree days 0 20  
Since 1 July heating degree days 5029 5633  
Cooling Degree Days 11 5  
Month to date cooling degree days 116 54  
Year to date cooling degree days 169 88  
Since 1 June cooling degree days 116 54  
Growing Degree Days 26 (Base 50)    
Moisture  
Dew Point 33 °F    
Average Humidity 30    
Maximum Humidity 51    
Minimum Humidity 8    
Precipitation  
Precipitation 0.00 in 0.04 in 0.64 in (1901)
Month to date precipitation T 0.65  
Year to date precipitation 2.46 5.14  
Snow  
Snow 0.00 in 0.00 in 0.00 in (2002)
Month to date snowfall 0.0 0.0  
Since 1 June snowfall 0.0 0.0  
Since 1 July snowfall 32.1 31.8  
Snow Depth 0.00 in    
Sea Level Pressure  
Sea Level Pressure 29.66 in    
Wind  
Wind Speed 9 mph (ENE)    
Max Wind Speed 35 mph    
Max Gust Speed 53 mph    
Visibility 10 miles    
Events      
T = Trace of Precipitation, MM = Missing Value Source: NWS Daily Summary

Daily Weather History Graph

Daily Weather History Graph

Search for Another Location

Airport or City:

Trip Planner

Search our weather history database for the weather conditions in past years. The results will help you decide how hot, cold, wet, or windy it might be!

Date:

Astronomy

Jun. 14, 2012 Rise Set
Actual Time 5:33 AM MDT 8:23 PM MDT
Civil Twilight 5:02 AM MDT 8:54 PM MDT
Nautical Twilight 4:22 AM MDT 9:34 PM MDT
Astronomical Twilight 3:37 AM MDT 10:19 PM MDT
Moon 2:15 AM MDT (6/14) 4:10 PM MDT (6/14)
Length of Visible Light 15h 52m
Length of Day
14h 49m
Waning Crescent, 20% of the Moon is Illuminated
Jun 14
Waning Crescent
Jun 19
New
Jun 26
First Quarter
Jul 3
Full
Jul 10
Last Quarter

Hourly Weather History & Observations

Time (MDT) Temp. Dew Point Humidity Pressure Visibility Wind Dir Wind Speed Gust Speed Precip Events Conditions
12:53 AM 72.0 °F 37.9 °F 29% 29.57 in 10.0 mi WNW 8.1 mph - N/A   Clear
1:53 AM 64.0 °F 37.9 °F 38% 29.58 in 10.0 mi West 4.6 mph - N/A   Clear
2:53 AM 66.0 °F 43.0 °F 43% 29.57 in 10.0 mi North 13.8 mph - N/A   Clear
3:53 AM 63.0 °F 41.0 °F 45% 29.60 in 10.0 mi West 4.6 mph - N/A   Clear
4:53 AM 60.1 °F 39.9 °F 47% 29.62 in 10.0 mi NW 10.4 mph - N/A   Clear
5:53 AM 57.9 °F 39.9 °F 51% 29.64 in 10.0 mi West 4.6 mph - N/A   Clear
6:53 AM 64.0 °F 42.1 °F 45% 29.66 in 10.0 mi Calm Calm - N/A   Clear
7:53 AM 72.0 °F 43.0 °F 35% 29.68 in 10.0 mi WSW 6.9 mph - N/A   Clear
8:53 AM 82.9 °F 32.0 °F 16% 29.69 in 10.0 mi NNE 17.3 mph 23.0 mph N/A   Clear
9:53 AM 84.9 °F 32.0 °F 15% 29.70 in 10.0 mi NNE 9.2 mph 17.3 mph N/A   Clear
10:53 AM 88.0 °F 33.1 °F 14% 29.69 in 10.0 mi ENE 11.5 mph 18.4 mph N/A   Clear
11:53 AM 90.0 °F 30.0 °F 12% 29.68 in 10.0 mi East 12.7 mph 18.4 mph N/A   Clear
12:53 PM 91.9 °F 28.0 °F 10% 29.67 in 10.0 mi ESE 13.8 mph 19.6 mph N/A   Clear
1:53 PM 93.0 °F 27.0 °F 9% 29.67 in 10.0 mi Variable 4.6 mph 24.2 mph N/A   Clear
2:53 PM 93.0 °F 24.1 °F 8% 29.65 in 10.0 mi NE 6.9 mph 19.6 mph N/A   Clear
3:53 PM 91.9 °F 25.0 °F 9% 29.65 in 10.0 mi SSE 5.8 mph 20.7 mph N/A   Clear
4:53 PM 91.0 °F 25.0 °F 9% 29.65 in 10.0 mi SSE 6.9 mph - N/A   Clear
5:48 PM 89.6 °F 26.6 °F 10% 29.84 in 10.0 mi East 16.1 mph 47.2 mph N/A   Scattered Clouds
5:53 PM 90.0 °F 27.0 °F 10% 29.65 in 10.0 mi East 13.8 mph 23.0 mph N/A   Scattered Clouds
6:00 PM 89.6 °F 24.8 °F 10% 29.84 in 10.0 mi ENE 8.1 mph 23.0 mph N/A   Partly Cloudy
6:53 PM 89.1 °F 28.0 °F 11% 29.63 in 10.0 mi SW 4.6 mph - N/A   Clear
7:53 PM 82.0 °F 35.1 °F 18% 29.61 in 10.0 mi SSE 11.5 mph - N/A   Clear
8:53 PM 80.1 °F 36.0 °F 20% 29.62 in 10.0 mi SSE 15.0 mph - N/A   Clear
9:53 PM 77.0 °F 36.0 °F 23% 29.65 in 10.0 mi Calm Calm - N/A   Clear
10:53 PM 73.9 °F 34.0 °F 23% 29.67 in 10.0 mi NNE 8.1 mph - N/A   Clear
11:53 PM 73.0 °F 34.0 °F 24% 29.70 in 10.0 mi NE 13.8 mph - N/A   Clear